Find Starlink 30843

NORAD ID: 58241 Int'l Des: 2023-171 Owner: SPXS Country: US Constellation: starlink operational
LEOCIRCULAR

当前视图

正在加载3D地球...

About Starlink 30843

Starlink 30843 (NORAD 58241) is a starlink constellation satellite (v2 mini) launched Nov 8, 2023 by SPXS of US. It operates in LEO, CIRCULAR orbit with a mass of 730.00 kg.

即将过境

Passes for default location (London). Set your location on the main map for personalized predictions.

高度历史

Loading altitude history...

两行轨道根数

1 58241U 23171M 26237.52235919 -.00000551 00000-0 -10510-4 0 9994
2 58241 43.0028 51.8821 0001057 267.3961 92.6770 15.27580467155570
Epoch: Aug 25, 2026 • Age: 9 hours

当前状态

高度 487.5 km
远地点 / 近地点 N/A
速度 7.62 km/s
星下点 -21.11°S, 84°E
发射日期 Nov 8, 2023
运行时间 2.7 years
类型 internet

技术详情

分类 Payload
质量 730.00 kg
干质量 700.00 kg
总质量 730.00 kg
长度 0.30 m
直径 4.10 m
跨度 29.00 m
形状 Box + pan
制造商 SPXS
平台类型 Starlink V2M
阶段状态 In Orbit
所有者/国家 SPXS/US

Most Searched